Weather History for Artesia, NM

Change the Weather History Date:

Saturday, August 17, 2013

  Actual Average Record
Temperature  
Mean Temperature 81 °F -  
Max Temperature 96 °F 92 °F 102 °F (1952)
Min Temperature 66 °F 62 °F 53 °F (1973)
Cooling Degree Days 16    
Growing Degree Days 31 (Base 50)    
Moisture  
Dew Point 54 °F    
Average Humidity 41    
Maximum Humidity 64    
Minimum Humidity 19    
Precipitation  
Precipitation 0.00 in - - ()
Sea Level Pressure  
Sea Level Pressure 30.10 in    
Wind  
Wind Speed 9 mph (South)    
Max Wind Speed 30 mph    
Max Gust Speed 41 mph    
Visibility 10 miles    
Events Rain , Thunderstorm    
Averages and records for this station are not official NWS values.
T = Trace of Precipitation, MM = Missing Value Source: NWS Daily Summary

Daily Weather History Graph

Daily Weather History Graph

Search for Another Location

Airport:

Trip Planner

Search our weather history database for the weather conditions in past years. The results will help you decide how hot, cold, wet, or windy it might be!

Date:

Astronomy

Aug. 17, 2013 Rise Set
Actual Time 6:22 AM MDT 7:40 PM MDT
Civil Twilight 5:56 AM MDT 8:06 PM MDT
Nautical Twilight 5:25 AM MDT 8:37 PM MDT
Astronomical Twilight 4:53 AM MDT 9:09 PM MDT
Moon 4:53 PM MDT (8/17) 2:34 AM MDT (8/17)
Length of Visible Light 14h 09m
Length of Day
13h 17m
Waxing Gibbous, 85% of the Moon is Illuminated
Aug 17
Waxing Gibbous
Aug 20
Full
Aug 28
Last Quarter
Sep 5
New
Sep 12
First Quarter

Hourly Weather History & Observations

Time (MDT) Temp. Heat Index Dew Point Humidity Pressure Visibility Wind Dir Wind Speed Gust Speed Precip Events Conditions
12:15 AM 77.0 °F - 50.0 °F 39% 30.15 in 10.0 mi SSE 8.1 mph - N/A   Clear
12:35 AM 75.2 °F - 50.0 °F 41% 30.15 in 10.0 mi SSE 6.9 mph - N/A   Clear
12:55 AM 75.2 °F - 53.6 °F 47% 30.15 in 10.0 mi South 8.1 mph - N/A   Clear
1:15 AM 77.0 °F - 55.4 °F 47% 30.15 in 10.0 mi South 9.2 mph - N/A   Clear
1:35 AM 75.2 °F - 55.4 °F 50% 30.15 in 10.0 mi South 9.2 mph - N/A   Clear
1:55 AM 75.2 °F - 55.4 °F 50% 30.15 in 10.0 mi South 9.2 mph - N/A   Clear
2:15 AM 75.2 °F - 55.4 °F 50% 30.14 in 10.0 mi South 10.4 mph - N/A   Clear
2:35 AM 75.2 °F - 55.4 °F 50% 30.14 in 10.0 mi SSW 9.2 mph - N/A   Clear
2:55 AM 73.4 °F - 53.6 °F 50% 30.13 in 10.0 mi South 9.2 mph - N/A   Clear
3:15 AM 73.4 °F - 53.6 °F 50% 30.13 in 10.0 mi South 10.4 mph - N/A   Clear
3:35 AM 73.4 °F - 55.4 °F 53% 30.13 in 10.0 mi South 10.4 mph - N/A   Clear
3:55 AM 73.4 °F - 55.4 °F 53% 30.13 in 10.0 mi South 9.2 mph - N/A   Clear
4:15 AM 71.6 °F - 55.4 °F 57% 30.14 in 10.0 mi South 5.8 mph - N/A   Clear
4:35 AM 71.6 °F - 55.4 °F 57% 30.14 in 10.0 mi South 3.5 mph - N/A   Clear
4:55 AM 71.6 °F - 55.4 °F 57% 30.14 in 10.0 mi Calm Calm - N/A   Clear
5:15 AM 69.8 °F - 53.6 °F 56% 30.14 in 10.0 mi Calm Calm - N/A   Clear
5:35 AM 68.0 °F - 53.6 °F 60% 30.14 in 10.0 mi East 3.5 mph - N/A   Clear
5:55 AM 68.0 °F - 55.4 °F 64% 30.15 in 10.0 mi Calm Calm - N/A   Clear
6:15 AM 68.0 °F - 53.6 °F 60% 30.15 in 10.0 mi Calm Calm - N/A   Clear
6:35 AM 66.2 °F - 53.6 °F 64% 30.16 in 10.0 mi Calm Calm - N/A   Clear
6:55 AM 66.2 °F - 53.6 °F 64% 30.16 in 10.0 mi SSE 3.5 mph - N/A   Clear
7:15 AM 68.0 °F - 55.4 °F 64% 30.16 in 10.0 mi South 4.6 mph - N/A   Clear
7:35 AM 69.8 °F - 55.4 °F 60% 30.17 in 10.0 mi South 4.6 mph - N/A   Clear
7:55 AM 71.6 °F - 55.4 °F 57% 30.17 in 10.0 mi South 6.9 mph - N/A   Clear
8:15 AM 73.4 °F - 57.2 °F 57% 30.17 in 10.0 mi South 8.1 mph - N/A   Clear
8:35 AM 73.4 °F - 57.2 °F 57% 30.17 in 10.0 mi SSE 9.2 mph - N/A   Clear
8:55 AM 75.2 °F - 57.2 °F 53% 30.17 in 10.0 mi SSE 12.7 mph - N/A   Clear
9:15 AM 77.0 °F - 57.2 °F 50% 30.16 in 10.0 mi South 13.8 mph 17.3 mph N/A   Clear
9:35 AM 77.0 °F - 57.2 °F 50% 30.17 in 10.0 mi SSE 12.7 mph 18.4 mph N/A   Clear
9:55 AM 78.8 °F - 57.2 °F 47% 30.16 in 10.0 mi SSE 15.0 mph - N/A   Clear
10:15 AM 80.6 °F 80.8 °F 57.2 °F 45% 30.16 in 10.0 mi SSE 13.8 mph - N/A   Clear
10:35 AM 80.6 °F 80.8 °F 57.2 °F 45% 30.16 in 10.0 mi SSE 11.5 mph 16.1 mph N/A   Clear
10:55 AM 82.4 °F 82.0 °F 57.2 °F 42% 30.16 in 10.0 mi SE 11.5 mph - N/A   Clear
11:15 AM 82.4 °F 82.0 °F 57.2 °F 42% 30.15 in 10.0 mi SSE 8.1 mph - N/A   Clear
11:35 AM 84.2 °F 83.5 °F 57.2 °F 40% 30.14 in 10.0 mi SSE 11.5 mph 16.1 mph N/A   Clear
11:55 AM 86.0 °F 84.9 °F 57.2 °F 37% 30.13 in 10.0 mi SE 9.2 mph - N/A   Clear
12:15 PM 86.0 °F 84.9 °F 57.2 °F 37% 30.12 in 10.0 mi SSE 10.4 mph - N/A   Clear
12:35 PM 87.8 °F 86.5 °F 57.2 °F 35% 30.11 in 10.0 mi SE 11.5 mph - N/A   Clear
12:55 PM 89.6 °F 87.7 °F 55.4 °F 31% 30.10 in 10.0 mi SE 6.9 mph - N/A   Clear
1:15 PM 89.6 °F 87.7 °F 55.4 °F 31% 30.09 in 10.0 mi SSE 4.6 mph - N/A   Clear
1:35 PM 91.4 °F 89.4 °F 55.4 °F 29% 30.08 in 10.0 mi SE 11.5 mph - N/A   Clear
1:55 PM 91.4 °F 89.1 °F 53.6 °F 28% 30.07 in 10.0 mi ESE 10.4 mph - N/A   Clear
2:15 PM 93.2 °F - 51.8 °F 24% 30.06 in 10.0 mi SE 10.4 mph - N/A   Clear
2:35 PM 93.2 °F - 51.8 °F 24% 30.05 in 10.0 mi SE 5.8 mph - N/A   Clear
2:55 PM 95.0 °F 92.7 °F 53.6 °F 25% 30.04 in 10.0 mi SSE 6.9 mph - N/A   Clear
3:15 PM 95.0 °F 92.7 °F 53.6 °F 25% 30.04 in 10.0 mi ESE 6.9 mph 18.4 mph N/A   Clear
3:35 PM 96.8 °F - 51.8 °F 22% 30.03 in 10.0 mi South 12.7 mph 17.3 mph N/A   Clear
3:55 PM 95.0 °F - 50.0 °F 22% 30.02 in 10.0 mi SSE 10.4 mph - N/A   Clear
4:15 PM 96.8 °F - 50.0 °F 20% 30.02 in 10.0 mi South 5.8 mph 16.1 mph N/A   Clear
4:35 PM 95.0 °F - 50.0 °F 22% 30.01 in 10.0 mi SSW 10.4 mph - N/A   Clear
4:55 PM 96.8 °F - 50.0 °F 20% 30.01 in 10.0 mi SE 9.2 mph - N/A   Clear
5:15 PM 96.8 °F - 50.0 °F 20% 30.01 in 10.0 mi South 9.2 mph 17.3 mph N/A   Scattered Clouds
5:35 PM 95.0 °F - 50.0 °F 22% 30.00 in 10.0 mi WSW 10.4 mph 18.4 mph N/A   Mostly Cloudy
5:55 PM 95.0 °F - 48.2 °F 20% 30.00 in 10.0 mi WSW 12.7 mph 20.7 mph N/A   Partly Cloudy
6:15 PM 95.0 °F - 48.2 °F 20% 30.01 in 10.0 mi West 10.4 mph - N/A   Clear
6:35 PM 95.0 °F - 46.4 °F 19% 30.00 in 10.0 mi SW 9.2 mph - N/A   Clear
6:55 PM 93.2 °F - 48.2 °F 21% 30.00 in 10.0 mi SW 8.1 mph - N/A   Clear
7:15 PM 93.2 °F - 46.4 °F 20% 30.01 in 10.0 mi SSW 9.2 mph - N/A Thunderstorm Clear
7:35 PM 91.4 °F - 46.4 °F 21% 30.02 in 10.0 mi SSW 8.1 mph - N/A   Clear
7:55 PM 91.4 °F - 46.4 °F 21% 30.03 in 10.0 mi West 5.8 mph - N/A   Clear
8:15 PM 82.4 °F 81.7 °F 55.4 °F 39% 30.06 in 7.0 mi North 19.6 mph 36.8 mph N/A Thunderstorm Mostly Cloudy
8:35 PM 80.6 °F 80.5 °F 55.4 °F 42% 30.05 in 10.0 mi North 21.9 mph 28.8 mph N/A Rain , Thunderstorm Light Rain
8:55 PM 84.2 °F 82.8 °F 53.6 °F 35% 30.07 in 9.0 mi NE 29.9 mph 41.4 mph N/A Rain , Thunderstorm Light Rain
9:15 PM 82.4 °F - 50.0 °F 32% 30.10 in 9.0 mi NE 15.0 mph 26.5 mph N/A Rain , Thunderstorm Light Thunderstorms and Rain
9:35 PM 78.8 °F - 53.6 °F 42% 30.10 in 7.0 mi East 17.3 mph 25.3 mph N/A Rain , Thunderstorm Rain
9:55 PM 77.0 °F - 55.4 °F 47% 30.06 in 10.0 mi ESE 26.5 mph 36.8 mph N/A Rain Light Rain
10:15 PM 78.8 °F - 53.6 °F 42% 30.06 in 10.0 mi SE 23.0 mph 34.5 mph N/A   Clear
10:35 PM 78.8 °F - 51.8 °F 39% 30.07 in 10.0 mi SSE 9.2 mph - N/A   Clear
10:55 PM 77.0 °F - 51.8 °F 41% 30.07 in 10.0 mi South 6.9 mph - N/A   Clear
11:15 PM 75.2 °F - 57.2 °F 53% 30.07 in 10.0 mi SW 8.1 mph - N/A   Clear
11:35 PM 75.2 °F - 51.8 °F 44% 30.08 in 10.0 mi West 11.5 mph 17.3 mph N/A   Clear
11:55 PM 77.0 °F - 50.0 °F 39% 30.09 in 10.0 mi WNW 12.7 mph - N/A   Clear